Regional Weather Roundup
Issued by NWS

Home | Current Version | Previous Version | Text Only | Print | Product List | Glossary On
Versions: 1 2 3 4 5 6 7 8 9 10 11 12 13 14 15 16 17 18 19 20 21 22 23 24 25 26 27
000
ASUS45 KPSR 270510
RWRAZ

ARIZONA HOURLY REGIONAL WEATHER ROUNDUP
NATIONAL WEATHER SERVICE PHOENIX AZ
1000 PM MST FRI AUG 26 2016

NOTE: FAIR INDICATES FEW OR NO CLOUDS BELOW 12,000 FEET WITH NO
SIGNIFICANT WEATHER AND/OR OBSTRUCTIONS TO VISIBILITY.

AZZ001>003-036-270600-
NORTHWEST ARIZONA

CITY           SKY/WX    TMP DP  RH WIND       PRES   REMARKS
BULLHEAD CITY  MOCLDY    91  54  27 N7        29.82R
KINGMAN        MOCLDY    75  51  43 SE9       30.02R
$$

AZZ004>008-015-016-018-270600-
NORTH CENTRAL ARIZONA

CITY           SKY/WX    TMP DP  RH WIND       PRES   REMARKS
GRAND CANYON   CLOUDY    57  49  74 VRB5      30.27F
PRESCOTT       CLEAR     62  58  86 SW5       30.15S
FLAGSTAFF      MOCLDY    50  49  96 CALM      30.29S
PAYSON         CLEAR     63  52  67 CALM      30.19S
PAGE           CLOUDY    67  52  58 NE10      30.15R
$$

AZZ009>014-017-270600-
NORTHEAST ARIZONA

CITY           SKY/WX    TMP DP  RH WIND       PRES   REMARKS
WINSLOW        PTCLDY    64  52  64 NW6       30.16R
SAINT JOHNS    PTCLDY    60  48  64 S5        30.20R
WINDOW ROCK    PTCLDY    56  47  71 E3        30.26R
SHOW LOW       CLEAR     55  46  71 S7        30.25S
$$

AZZ023-270600-
GREATER PHOENIX AREA

CITY           SKY/WX    TMP DP  RH WIND       PRES   REMARKS
PHOENIX        MOCLDY    92  58  31 E9        29.84R
BUCKEYE        PTCLDY    90  54  29 CALM      29.85R
LUKE AFB       PTCLDY    89  56  33 N9        29.84R
DEER VALLEY    CLEAR     88  53  30 NE8       29.87R
SCOTTSDALE     CLEAR     89  56  32 E5        29.88S
MESA-GATEWAY   PTCLDY    88  59  37 E8        29.88R
$$

AZZ027-028-270600-
SOUTHWEST MARICOPA COUNTY AND PINAL COUNTY

CITY           SKY/WX    TMP DP  RH WIND       PRES   REMARKS
CASA GRANDE    CLEAR     88  57  35 E9        29.89S
GILA BEND      CLOUDY    91  60  34 SW7       29.82R
$$

AZZ503-504-507>509-270600-
SOUTHEAST ARIZONA

CITY           SKY/WX    TMP DP  RH WIND       PRES   REMARKS
TUCSON         CLEAR     81  61  50 S5        29.99R
DAVIS-MONTHAN  CLEAR     78  60  54 SE7       29.98R
NOGALES        CLEAR     72  51  47 CALM      30.08R
SIERRA VISTA   CLEAR     69  50  50 VRB1      30.15R
DOUGLAS        PTCLDY    71  57  61 N6        30.10S
SAFFORD        CLEAR     69  60  73 NE5       30.03R
$$

AZZ020-021-025-026-031-270600-
SOUTHWEST ARIZONA

CITY           SKY/WX    TMP DP  RH WIND       PRES   REMARKS
YUMA           PTCLDY    87  54  32 S5        29.78R
$$

CAZ031-033-041-043-047-048-061-270600-
SOUTHERN CALIFORNIA

CITY           SKY/WX    TMP DP  RH WIND       PRES   REMARKS
DOWNTOWN L.A.  CLEAR     65  58  78 W5        29.96R
L.A. AIRPORT   PTCLDY    65  58  78 W7        29.96S
SAN DIEGO      CLOUDY    68  56  65 NW3       29.99R
BURBANK        CLEAR     63  57  81 S6        29.96R
ONTARIO        CLEAR     64  56  75 W7        29.97R
RIVERSIDE      CLEAR     66  56  70 W6        29.97R
PALM SPRINGS   CLEAR     86  52  30 NW13      29.80R
EL CENTRO NAS  CLEAR     87  50  27 W7        29.77R
IMPERIAL       CLEAR     89  55  31 S7        29.75R
BLYTHE         PTCLDY    93  54  26 S8        29.78R
$$

NVZ020-UTZ003-270600-
SOUTHERN NEVADA-UTAH

CITY           SKY/WX    TMP DP  RH WIND       PRES   REMARKS
LAS VEGAS      MOCLDY    85  53  33 SW8       29.87S
SALT LAKE CITY CLEAR     71  28  20 SE9       30.01R
$$

NMZ009-TXZ055-270600-
NEW MEXICO-WEST TEXAS

CITY           SKY/WX    TMP DP  RH WIND       PRES   REMARKS
ALBUQUERQUE    PTCLDY    68  47  46 E8        30.17R
EL PASO        MOCLDY    74  59  59 N15       30.11R
$$


........................KEY........................
SKY/WX - SKY CONDITION/WEATHER
TMP    - TEMPERATURE IN FAHRENHEIT
DP     - DEW POINT IN FAHRENHEIT
RH     - RELATIVE HUMIDITY IN PERCENT
WIND   - DIRECTION AND SPEED IN MILES PER HOUR (MPH)
VRB    - VARIABLE WIND DIRECTION
PRES   - MEAN SEA LEVEL PRESSURE IN INCHES OF MERCURY
         F - FALLING PRESSURE   R - RISING PRESSURE
         S - STEADY PRESSURE
VSB    - VISIBILITY IN MILES
HX     - HEAT INDEX IN FAHRENHEIT
WCI    - WIND CHILL INDEX IN FAHRENHEIT
TC     - TEMPERATURE IN CELSIUS WHICH IS ALSO KNOWN AS
         TEMPERATURE IN CENTIGRADE
AFB    - AIR FORCE BASE
         LUKE AFB IS LUKE AIR FORCE BASE
         DAVIS-MONTHAN IS DAVIS-MONTHAN AIR FORCE BASE
NAS    - NAVAL AIR STATION
         EL CENTRO NAS IS EL CENTRO NAVAL AIR STATION
N/A    - NOT AVAILABLE





USA.gov is the U.S. government's official web portal to all federal, state and local government web resources and services.